Wind_Speed
12 10 10 12 9 8 13 12 10 6 4 3 2 4 5 6 8 4 2 10 12 12 10 7 8 8 8 7 8 10 11 10 10 10 10 10 12 13 14 16 17 17 18 18 19 19 20 21 21
13 12 9 11 11 14 14 14 9 7 8 5 5 4 4 6 8 7 6 4 11 14 10 7 7 7 8 8 9 12 13 13 13 13 13 13 13 14 15 16 18 19 20 19 20 20 19 19 20
14 12 8 9 16 16 8 11 11 7 7 9 9 7 7 7 8 9 9 9 9 11 11 10 9 8 8 10 11 12 14 15 16 16 16 16 15 16 16 17 19 20 21 21 22 22 21 20 21
14 10 10 14 12 16 10 10 14 14 12 10 10 8 11 11 9 9 11 14 15 15 15 15 14 13 11 11 13 15 16 17 18 19 20 19 19 19 20 19 21 21 23 23 24 23 23 22 23
14 10 14 14 16 11 16 14 14 14 13 12 11 12 12 11 11 12 11 13 16 17 16 15 15 15 16 15 16 18 18 19 20 22 23 23 22 22 21 22 22 24 25 24 25 26 25 23 24
15 13 10 19 14 13 12 17 15 16 16 16 17 18 17 20 19 17 17 17 18 21 21 21 21 20 19 18 19 22 22 23 24 24 25 26 25 25 24 23 21 20 21 22 23 25 25 24 23
17 14 15 12 11 15 14 15 17 19 18 16 18 17 17 17 18 18 19 18 19 22 23 24 23 24 22 22 25 24 25 27 28 28 27 28 28 27 25 24 22 24 24 21 19 21 25 25 24
18 15 11 12 14 14 17 17 17 18 20 20 21 20 21 20 20 22 22 24 24 23 25 26 24 25 28 27 24 23 24 26 29 31 31 29 30 29 28 26 26 28 27 28 27 26 23 26 26
18 17 13 12 9 14 15 19 19 19 20 22 23 25 25 25 25 25 26 28 29 29 28 29 30 29 29 31 31 29 28 27 26 30 35 34 32 33 32 30 29 28 31 31 32 32 30 29 27
20 20 14 13 11 11 15 16 17 19 21 23 25 27 28 28 27 26 25 24 26 27 27 28 31 33 34 34 35 37 35 33 32 31 42 28 35 37 36 35 33 31 31 37 36 34 33 32 29
19 21 16 15 11 13 15 18 18 19 20 20 23 25 26 25 24 25 24 23 24 25 25 26 27 28 30 34 38 41 43 42 41 39 37 34 34 37 49 43 42 36 36 36 35 36 36 37 35
16 14 16 16 14 15 15 14 17 18 16 21 22 22 24 25 25 24 22 23 22 23 25 27 27 27 27 27 29 32 36 42 46 47 47 47 44 34 34 39 41 43 38 39 38 36 38 38 38
14 14 12 12 15 16 15 15 19 16 20 22 20 22 21 21 20 19 18 20 21 23 25 24 24 24 26 26 27 28 30 32 35 39 44 49 52 48 33 31 39 41 37 38 41 40 41 38 41
7 12 13 13 13 14 16 17 21 22 24 22 17 14 12 12 14 16 19 21 24 24 22 21 21 22 23 25 26 28 31 33 34 37 38 39 45 48 48 43 37 38 41 44 43 41 43 42 42
10 10 11 13 13 17 17 20 19 15 12 10 9 12 13 15 17 19 22 25 25 22 22 23 25 26 29 31 32 32 33 36 38 39 39 41 40 42 44 49 61 45 50 44 40 46 46 45 45
8 11 12 11 11 16 19 20 18 15 14 11 12 15 16 17 21 22 24 24 23 23 24 27 29 31 34 37 40 42 41 41 41 43 45 44 44 43 44 45 48 58 52 49 47 51 49 47 47
10 9 11 13 14 17 16 16 15 14 19 14 15 16 16 16 17 19 21 22 22 24 26 28 33 36 40 42 44 46 47 46 47 48 48 49 50 48 48 48 48 49 54 60 59 51 48 52 53
7 10 12 13 15 17 20 19 14 20 25 19 17 16 14 14 15 18 19 20 22 24 27 30 35 37 41 45 48 51 51 51 51 50 50 50 51 51 53 53 55 52 54 52 58 59 49 53 58
13 13 14 15 17 20 17 21 15 21 27 25 19 18 13 14 16 16 16 18 20 24 29 32 37 42 45 47 53 52 48 50 50 48 48 49 52 55 57 56 57 57 59 55 56 61 44 45 57
12 13 15 15 13 20 22 23 20 17 18 23 20 18 16 16 15 15 16 19 23 27 32 36 41 44 45 50 53 49 46 44 44 45 45 45 47 47 48 53 57 59 60 64 61 63 60 54 38
12 13 14 13 16 20 20 19 12 8 13 14 16 18 18 16 15 17 18 22 27 31 35 39 41 45 46 52 52 46 44 43 43 45 46 49 52 52 50 50 52 53 56 62 69 66 64 61 50
12 13 13 14 14 7 17 7 14 16 10 13 13 16 17 17 17 19 21 24 31 35 37 40 42 45 47 50 47 44 44 45 47 48 48 49 51 53 54 52 52 54 56 58 63 71 69 67 69
12 11 13 16 16 12 7 3 5 9 7 9 11 13 16 16 19 21 24 29 34 36 38 41 45 46 47 49 44 42 44 48 48 46 48 45 46 49 53 57 56 55 55 57 59 67 74 72 67
12 11 13 16 9 2 3 3 7 5 3 8 10 12 14 15 21 23 27 31 34 37 39 43 47 47 48 44 39 43 44 45 43 41 43 44 45 46 48 52 55 56 56 56 57 61 71 75 70
13 8 3 4 2 4 4 7 12 8 9 10 11 12 14 18 22 25 31 32 35 36 39 42 45 46 45 40 39 39 41 42 44 43 42 43 43 45 47 48 51 53 54 55 57 60 65 72 76
14 11 5 6 2 4 7 9 2 3 11 11 7 13 16 21 25 28 31 34 36 38 40 44 47 47 42 39 33 35 39 41 41 42 44 41 43 43 45 48 49 51 51 53 56 58 62 66 76
11 12 10 2 3 2 6 10 11 6 9 7 14 16 19 27 27 29 29 33 35 38 40 44 47 47 41 34 34 33 37 42 41 42 39 36 38 42 45 47 49 49 51 52 54 56 58 65 69
15 9 5 7 1 4 6 11 12 6 8 7 22 21 22 29 30 28 28 31 34 37 40 44 46 45 39 33 35 36 40 43 42 39 36 35 37 43 48 47 46 42 42 48 51 53 55 60 65
19 18 11 6 5 5 1 8 7 15 9 17 29 27 26 30 27 28 28 31 33 36 39 43 44 42 36 34 35 37 41 40 34 33 33 34 38 40 42 40 37 34 34 39 45 49 52 57 59
20 18 18 7 6 7 3 13 15 7 14 32 28 28 28 27 28 28 29 30 32 34 38 40 40 41 35 33 36 38 39 32 30 31 29 30 34 37 32 30 29 25 28 33 39 44 48 51 54
Wind_Direction
241 262 268 232 215 215 218 224 237 250 218 207 201 194 200 195 183 198 216 227 231 239 257 262 278 290 292 273 258 239 237 240 248 252 248 245 244 232 228 233 233 233 232 233 238 237 236 239 241
249 263 255 221 222 214 217 213 219 225 219 214 213 200 186 191 205 215 262 248 238 247 252 248 244 271 280 265 247 254 247 246 248 253 256 255 253 251 245 237 237 237 237 231 234 237 232 235 238
241 250 232 216 225 226 223 204 192 195 210 210 213 225 231 228 223 238 250 260 250 247 252 259 253 258 265 272 251 250 256 252 251 252 256 257 256 258 255 249 242 238 238 239 232 234 234 232 238
231 231 222 222 226 225 215 202 201 212 217 213 214 231 238 249 254 252 253 258 261 258 260 259 261 260 254 251 256 248 245 252 255 254 254 255 258 256 257 257 256 245 239 237 239 235 234 229 233
224 223 229 235 227 229 214 203 204 212 222 230 237 242 253 259 262 266 260 258 259 259 257 260 259 261 256 253 251 246 245 246 252 258 259 258 257 257 258 255 252 252 246 237 235 238 234 230 233
215 222 231 234 233 226 222 217 221 226 238 243 249 257 260 258 260 265 269 264 259 265 267 265 265 266 266 261 259 258 249 244 245 251 258 260 261 260 259 255 250 242 243 242 236 230 230 231 232
216 226 238 243 240 226 224 221 227 234 246 248 256 257 257 257 262 272 271 267 268 262 260 265 267 268 266 259 258 255 254 250 246 245 251 255 257 259 262 257 243 237 241 240 232 228 228 231 233
215 225 245 243 242 232 224 227 234 239 244 249 253 262 265 266 271 276 276 274 272 269 262 258 260 258 260 262 259 261 259 255 253 255 250 253 257 254 252 250 243 236 237 238 231 235 233 235 235
214 224 241 238 238 231 231 235 242 246 246 249 255 259 266 271 273 274 275 277 278 274 269 264 263 264 259 256 254 253 255 256 255 258 255 248 251 254 251 246 244 240 231 237 241 238 236 239 236
214 228 240 239 243 243 237 239 244 248 249 251 256 263 269 272 274 277 280 281 281 282 279 274 269 266 262 257 254 254 255 255 257 256 252 257 256 250 252 246 246 243 242 235 238 242 240 236 235
226 235 238 244 252 252 248 248 254 256 258 263 262 266 271 274 280 283 283 281 277 278 281 279 274 270 266 264 262 259 258 258 257 259 257 260 255 255 249 239 232 237 240 247 244 242 237 241 242
230 241 244 247 253 258 258 263 264 265 278 266 264 267 274 276 282 286 287 283 284 285 281 279 279 280 277 273 269 267 267 265 264 262 262 262 265 272 254 254 249 236 238 243 246 247 242 244 243
231 238 248 256 253 261 266 269 272 274 274 277 271 273 274 277 278 281 282 283 285 282 283 289 292 290 287 285 283 280 275 269 265 264 264 261 260 262 263 246 249 251 242 245 245 246 247 249 247
236 242 253 259 265 267 276 278 278 289 281 276 274 269 274 280 286 294 294 292 290 288 291 292 291 290 289 288 284 282 282 279 276 273 269 263 261 260 258 259 246 250 249 255 249 244 248 250 248
240 246 260 267 271 279 288 287 286 286 279 265 259 277 288 294 298 297 295 290 288 289 291 289 290 294 295 293 289 286 285 283 280 278 274 273 270 262 259 248 257 255 248 255 248 253 244 246 248
236 255 265 273 278 290 294 294 289 281 273 268 286 290 289 293 295 291 287 287 291 294 293 291 292 290 291 290 289 286 283 278 274 272 271 271 272 270 265 260 250 250 254 252 248 251 248 247 245
242 253 264 282 286 290 289 291 290 283 271 258 282 288 289 293 289 286 283 285 290 291 290 289 291 294 295 296 297 295 291 286 281 273 267 264 263 263 268 265 261 254 251 249 242 233 247 241 241
242 250 266 278 286 286 289 287 271 284 278 266 271 281 278 282 286 289 287 285 285 286 286 288 291 297 302 304 303 298 293 290 288 283 278 273 266 261 258 259 263 260 255 248 242 247 233 244 243
255 265 275 283 287 292 286 283 288 263 269 274 262 265 263 284 289 294 291 288 288 291 295 302 305 306 307 305 305 297 293 292 291 289 285 278 273 271 267 262 255 256 258 253 248 235 240 227 242
254 269 278 286 286 301 298 294 294 271 268 263 253 243 253 276 294 299 294 295 299 303 306 306 307 308 304 303 306 297 294 293 288 285 286 283 280 277 275 268 261 253 254 256 250 249 248 237 229
257 268 277 277 297 303 305 307 301 264 290 258 243 246 252 277 298 302 300 306 307 305 304 308 308 311 308 310 309 298 294 293 293 287 285 284 282 279 276 270 266 260 257 251 251 248 247 238 224
256 265 270 285 305 293 309 284 281 283 280 240 254 239 259 278 300 309 308 309 310 308 310 310 312 313 310 311 309 302 296 293 290 288 286 283 279 278 276 274 268 264 259 254 248 246 245 242 228
251 260 277 289 292 296 299 253 257 283 271 233 240 254 270 291 306 313 311 312 312 313 313 313 314 313 314 312 307 306 302 299 297 293 289 285 280 277 274 271 269 266 261 256 250 243 240 243 240
244 259 285 287 279 269 227 227 256 222 245 251 256 265 282 295 315 313 313 314 315 315 314 314 314 318 318 315 309 307 306 305 303 301 294 289 287 283 278 275 272 267 261 255 250 245 240 236 239
234 248 315 317 326 213 194 257 261 228 258 284 273 289 294 306 313 313 318 317 316 314 314 314 318 322 319 316 311 309 309 308 305 302 296 295 291 287 282 276 271 267 262 255 249 243 240 235 234
221 211 202 216 237 281 252 243 254 222 290 283 286 312 301 309 315 321 320 320 318 316 316 320 322 325 322 318 317 314 314 310 305 306 299 298 295 291 287 281 274 268 263 256 249 242 238 235 233
213 218 227 206 314 327 249 271 287 232 327 299 316 306 297 310 317 322 319 320 318 317 320 323 326 329 325 322 322 322 322 314 305 304 301 298 297 298 294 287 284 274 261 253 247 241 237 235 233
215 199 178 209 157 270 279 281 253 273 300 291 335 326 306 308 316 321 319 320 318 319 322 326 330 331 327 322 324 322 322 322 311 310 308 304 306 306 297 284 281 275 261 246 240 237 234 232 232
220 216 212 210 209 177 247 254 223 301 288 320 327 320 315 311 317 317 321 321 319 322 325 328 332 333 327 325 327 329 329 322 319 315 313 313 311 309 305 287 281 276 260 244 234 231 229 229 229
221 220 217 212 210 210 217 271 277 245 306 323 320 311 312 316 317 318 321 317 319 323 327 331 336 339 329 328 332 334 334 330 326 320 314 311 320 317 310 290 277 274 257 242 234 232 226 226 226
Height
3115 3116 3116 3118 3123 3118 3118 3121 3122 3124 3125 3125 3125 3127 3128 3128 3129 3133 3130 3131 3132 3132 3132 3132 3133 3133 3133 3133 3134 3135 3135 3136 3138 3139 3139 3140 3142 3142 3143 3144 3145 3146 3146 3148 3149 3150 3151 3153 3154
3113 3114 3114 3114 3116 3115 3116 3118 3121 3122 3123 3124 3125 3126 3127 3127 3128 3129 3129 3130 3130 3131 3131 3131 3131 3132 3133 3132 3133 3134 3134 3135 3135 3136 3137 3138 3139 3141 3142 3142 3143 3143 3144 3144 3146 3147 3148 3149 3151
3111 3112 3113 3113 3112 3112 3114 3116 3118 3120 3122 3122 3124 3125 3125 3127 3128 3128 3128 3129 3129 3130 3130 3131 3130 3130 3131 3132 3132 3132 3133 3133 3134 3134 3135 3136 3136 3138 3139 3140 3140 3140 3141 3142 3142 3144 3145 3147 3148
3109 3110 3111 3109 3108 3111 3113 3114 3117 3119 3120 3120 3122 3124 3124 3124 3125 3126 3126 3127 3128 3128 3128 3128 3128 3128 3128 3129 3130 3130 3131 3131 3131 3132 3132 3133 3133 3134 3135 3136 3138 3137 3138 3139 3140 3140 3142 3144 3145
3106 3107 3107 3106 3107 3109 3111 3113 3115 3116 3117 3118 3121 3122 3121 3122 3123 3124 3125 3126 3125 3126 3126 3126 3126 3126 3125 3126 3126 3127 3127 3128 3129 3129 3129 3130 3130 3130 3131 3132 3133 3134 3134 3135 3136 3137 3138 3140 3142
3103 3105 3104 3103 3105 3107 3109 3110 3112 3114 3115 3117 3119 3120 3119 3120 3120 3121 3121 3121 3122 3123 3123 3122 3123 3123 3122 3122 3123 3124 3124 3123 3124 3125 3125 3126 3127 3127 3127 3127 3129 3130 3131 3130 3131 3133 3135 3136 3137
3100 3102 3102 3102 3103 3105 3107 3108 3110 3112 3113 3115 3115 3115 3116 3116 3117 3117 3116 3116 3117 3117 3117 3118 3118 3119 3118 3118 3118 3118 3119 3119 3119 3119 3120 3121 3121 3122 3124 3124 3125 3127 3128 3128 3129 3130 3130 3133 3134
3099 3101 3099 3100 3101 3103 3104 3106 3108 3109 3110 3110 3111 3111 3113 3114 3114 3114 3112 3112 3112 3112 3112 3112 3112 3112 3113 3113 3114 3114 3114 3114 3114 3115 3114 3114 3116 3117 3118 3119 3120 3123 3124 3125 3126 3127 3127 3128 3130
3097 3098 3097 3098 3099 3100 3102 3103 3105 3106 3108 3108 3108 3108 3109 3109 3109 3109 3109 3108 3107 3107 3107 3107 3107 3107 3108 3108 3107 3107 3107 3108 3108 3108 3108 3108 3108 3110 3112 3113 3114 3116 3119 3120 3121 3122 3122 3123 3124
3094 3094 3096 3096 3097 3099 3099 3101 3102 3104 3104 3105 3105 3105 3104 3104 3104 3103 3103 3103 3101 3100 3100 3101 3102 3101 3102 3102 3102 3102 3101 3101 3100 3100 3100 3093 3101 3102 3105 3106 3109 3110 3112 3115 3115 3116 3117 3117 3118
3091 3091 3094 3094 3095 3096 3096 3097 3098 3099 3100 3101 3100 3099 3097 3097 3097 3097 3097 3096 3095 3094 3093 3092 3092 3092 3093 3094 3094 3094 3094 3094 3094 3094 3094 3092 3093 3095 3095 3093 3099 3103 3105 3106 3108 3109 3109 3110 3112
3088 3089 3091 3092 3092 3092 3093 3094 3094 3094 3096 3093 3094 3094 3093 3092 3091 3090 3090 3088 3088 3088 3087 3087 3087 3087 3087 3086 3086 3086 3087 3087 3087 3088 3087 3088 3088 3089 3088 3087 3089 3091 3095 3098 3100 3102 3103 3104 3105
3086 3087 3088 3088 3089 3089 3089 3089 3089 3090 3089 3087 3088 3088 3087 3088 3087 3085 3084 3083 3083 3082 3081 3082 3082 3081 3081 3081 3080 3080 3079 3077 3077 3078 3078 3079 3081 3083 3083 3080 3082 3083 3084 3088 3089 3092 3095 3097 3098
3084 3085 3085 3085 3086 3086 3086 3085 3084 3085 3083 3082 3082 3083 3083 3083 3082 3082 3081 3080 3080 3078 3078 3077 3076 3076 3075 3074 3074 3073 3071 3070 3070 3069 3068 3068 3069 3070 3074 3074 3073 3075 3073 3077 3079 3081 3085 3088 3089
3082 3083 3083 3083 3083 3082 3082 3082 3079 3078 3078 3078 3079 3078 3079 3079 3079 3078 3077 3077 3077 3076 3074 3073 3072 3070 3069 3067 3066 3065 3064 3062 3061 3060 3059 3058 3058 3058 3059 3062 3064 3067 3066 3066 3068 3072 3075 3077 3079
3080 3081 3080 3079 3079 3079 3079 3077 3076 3075 3074 3075 3074 3074 3075 3075 3075 3074 3074 3073 3072 3071 3070 3069 3067 3066 3063 3060 3057 3056 3055 3053 3052 3051 3049 3048 3047 3047 3048 3049 3052 3055 3056 3056 3060 3061 3065 3067 3069
3077 3077 3077 3077 3076 3075 3075 3073 3072 3072 3070 3072 3071 3071 3071 3071 3071 3071 3070 3068 3067 3066 3065 3064 3061 3058 3054 3050 3046 3043 3041 3040 3038 3037 3036 3036 3035 3036 3035 3036 3038 3042 3042 3046 3048 3050 3051 3056 3060
3074 3074 3074 3074 3073 3072 3070 3068 3069 3067 3065 3068 3067 3067 3067 3067 3068 3067 3065 3064 3063 3062 3060 3058 3055 3050 3045 3039 3035 3031 3027 3024 3023 3022 3021 3020 3020 3021 3022 3023 3024 3026 3027 3031 3037 3040 3040 3042 3048
3072 3072 3071 3070 3069 3067 3065 3063 3065 3064 3061 3061 3063 3062 3063 3064 3064 3062 3061 3060 3059 3056 3053 3049 3044 3040 3033 3028 3023 3017 3014 3011 3008 3006 3005 3003 3003 3004 3004 3006 3009 3010 3011 3015 3021 3026 3024 3028 3033
3069 3069 3069 3067 3065 3064 3060 3057 3057 3057 3057 3056 3058 3059 3061 3061 3059 3058 3056 3055 3052 3049 3045 3041 3037 3031 3026 3019 3012 3004 3000 3000 2996 2994 2991 2990 2988 2987 2986 2986 2988 2992 2995 2998 3004 3008 3012 3016 3019
3065 3066 3066 3066 3062 3059 3055 3052 3052 3052 3051 3051 3053 3055 3056 3056 3055 3053 3051 3049 3047 3043 3039 3034 3028 3022 3015 3006 2998 2992 2988 2986 2984 2981 2978 2976 2973 2971 2970 2971 2971 2973 2976 2979 2984 2990 2996 3003 3006
3062 3062 3062 3061 3059 3057 3054 3052 3048 3048 3048 3048 3050 3051 3052 3051 3050 3048 3046 3044 3040 3036 3030 3024 3019 3012 3004 2996 2987 2980 2976 2973 2971 2966 2964 2961 2958 2956 2955 2954 2954 2955 2958 2961 2964 2970 2977 2984 2991
3059 3059 3059 3058 3055 3053 3050 3052 3043 3044 3044 3045 3046 3046 3046 3045 3044 3041 3038 3034 3031 3026 3020 3014 3008 3001 2992 2984 2975 2969 2964 2959 2955 2953 2947 2946 2944 2940 2937 2937 2937 2937 2939 2942 2945 2950 2956 2963 2972
3056 3056 3056 3054 3053 3051 3048 3051 3040 3040 3041 3042 3041 3041 3041 3040 3038 3035 3031 3027 3023 3017 3012 3006 2998 2990 2981 2973 2966 2958 2951 2947 2942 2938 2933 2929 2926 2924 2922 2920 2919 2919 2920 2922 2926 2930 2936 2945 2951
3052 3054 3055 3056 3054 3051 3047 3047 3034 3036 3037 3038 3037 3037 3035 3034 3032 3028 3024 3020 3016 3011 3005 2998 2990 2982 2972 2963 2956 2949 2942 2935 2929 2924 2919 2915 2912 2908 2905 2902 2901 2901 2902 2904 2907 2911 2917 2924 2933
3048 3051 3051 3061 3055 3048 3046 3038 3031 3033 3034 3033 3033 3033 3032 3029 3026 3022 3016 3012 3008 3003 2996 2988 2980 2972 2963 2955 2947 2940 2932 2925 2920 2913 2906 2901 2897 2894 2891 2886 2883 2882 2883 2885 2888 2893 2898 2906 2915
3044 3046 3048 3048 3049 3049 3038 3031 3030 3028 3030 3030 3030 3028 3026 3023 3019 3015 3012 3007 3001 2995 2988 2980 2971 2963 2953 2944 2937 2931 2925 2917 2908 2901 2894 2890 2886 2881 2876 2869 2864 2862 2862 2866 2870 2875 2882 2889 2898
3040 3043 3045 3045 3050 3051 3035 3029 3025 3026 3027 3026 3024 3022 3020 3017 3013 3009 3005 3000 2995 2988 2982 2973 2964 2954 2945 2938 2930 2922 2915 2906 2898 2891 2885 2880 2875 2869 2862 2854 2847 2843 2843 2846 2852 2859 2867 2874 2884
3035 3035 3038 3041 3041 3042 3044 3025 3021 3022 3022 3022 3019 3016 3013 3010 3006 3002 2997 2993 2988 2982 2976 2968 2959 2949 2940 2931 2922 2915 2907 2896 2886 2881 2875 2870 2864 2857 2847 2839 2833 2829 2829 2832 2837 2844 2852 2860 2871
3028 3029 3032 3034 3035 3034 3033 3019 3016 3017 3017 3016 3013 3009 3006 3002 2999 2995 2991 2987 2982 2977 2971 2963 2954 2944 2935 2926 2916 2908 2898 2889 2880 2873 2866 2861 2855 2847 2836 2827 2822 2819 2819 2822 2826 2834 2840 2849 2859